Regional Weather Roundup
Issued by NWS

Home | Current Version | Previous Version | Graphics & Text | Print | Product List | Glossary On
Versions: 1 2 3 4 5 6 7 8 9 10 11 12 13 14 15 16 17 18 19 20 21 22 23 24 25 26 27 28 29 30 31 32 33 34 35 36 37 38 39 40 41 42 43 44 45 46 47 48 49 50
000
ASUS43 KIND 240409
RWRIN

WEATHER ROUNDUP FOR INDIANA
NATIONAL WEATHER SERVICE INDIANAPOLIS IN
1200 AM EDT SUN JUL 24 2016

NOTE: "FAIR" INDICATES FEW OR NO CLOUDS BELOW 12,000 FEET WITH NO
SIGNIFICANT WEATHER AND/OR OBSTRUCTIONS TO VISIBILITY.

* - STATION DOES NOT REPORT WEATHER SUCH AS PRECIPITATION OR FOG.

+ - STATION NOT QUALITY CONTROLLED BY THE NATIONAL WEATHER SERVICE.
    USE DATA WITH CAUTION...ESPECIALLY DEWPOINT AND RELATIVE
    HUMIDITY OBSERVATIONS.

INZ001>003-010>013-019-020-240500-
NORTHWEST INDIANA

CITY           SKY/WX    TMP DP  RH WIND       PRES   REMARKS
GARY /AIRPORT/ CLOUDY    75  75 100 N15G40    30.05R
KNOX *+        CLOUDY    73  68  83 S3        29.96S
LA PORTE +     CLOUDY   N/A N/A N/A S3        29.96S
MICHIGAN CITY+ CLOUDY    72  72 100 CALM      29.94S
MONTICELLO +   PTCLDY    81  73  78 CALM      29.95F
RENSSELAER +   MOCLDY    73  72  94 CALM      29.97S
VALPARAISO     CLOUDY    75  69  81 S6        29.96S

$$

LMZ046-743>745-240500-
SOUTHERN LAKE MICHIGAN

STATION/POSITION TIME  TEMP    WIND        PRES    WAVE
                       AIR SEA DIR/SP/G            HT
                 (UTC) (F)     (DEG/KT/KT) (MB)    (FT)
BURNS HARBOR     0400   76     270/ 16/ 25 1015.9R
MICHIGAN CITY    0300   74     110/ 12/ 14   N/A
5NW MICH CITY    0400   75 73  240/  6/ 16   N/A     2

$$

INZ004-005-014>016-021>024-240500-
NORTH CENTRAL INDIANA

CITY           SKY/WX    TMP DP  RH WIND       PRES   REMARKS
LOGANSPORT +   CLOUDY    77  75  94 CALM      29.96F
PERU/GRISSOM   CLOUDY    79  77  95 S6        29.95F
ROCHESTER +    CLOUDY    82  79  89 SE3       29.96F
SOUTH BEND     CLOUDY    75  73  93 SE5       29.96S
WARSAW +       CLOUDY    75  72  88 SE3       29.96F

$$

INZ006>009-017-018-025>027-240500-
NORTHEAST INDIANA

CITY           SKY/WX    TMP DP  RH WIND       PRES   REMARKS
ANGOLA *+        N/A     75  68  78 CALM      29.98F
AUBURN +       CLOUDY    75  68  78 CALM      29.98F
FORT WAYNE     CLOUDY    79  75  87 CALM      29.98F
HUNTINGTON +   CLOUDY   N/A N/A N/A S3        29.97F

$$

INZ028-029-035-036-043>045-051>053-240500-
WEST CENTRAL INDIANA

CITY           SKY/WX    TMP DP  RH WIND       PRES   REMARKS
CRAWFORDSVL +  PTCLDY    74  74 100 SE3       29.99F
GREENCASTLE +  CLEAR     75  75 100 CALM      30.00F
LAFAYETTE      PTCLDY    78  77  96 CALM      29.95F
TERRE HAUTE    CLEAR     79  75  87 CALM      29.98S

$$

INZ030>032-037>040-046>048-054>057-064-065-240500-
CENTRAL INDIANA

CITY           SKY/WX    TMP DP  RH WIND       PRES   REMARKS
FISHERS *+     PTCLDY    75  75 100 CALM      30.00F
FRANKFORT +    PTCLDY   N/A N/A N/A S5        30.00F
INDIANAPOLIS   PTCLDY    83  72  69 SE3       30.00S
-EAGLE CREEK   CLEAR     81  77  88 MISG      29.99F
KOKOMO *+      CLOUDY    75  70  83 S7        29.97F
MARION +       MOCLDY    74  72  93 CALM      29.99F
MT COMFORT *+  CLEAR     75  73  94 S3        30.01S
SHELBYVILLE    CLEAR     77  73  87 CALM      29.99F
ZIONSVILLE +   PTCLDY    75  74  97 CALM      30.00F

$$

INZ033-034-041-042-049-050-058-059-240500-
EAST CENTRAL INDIANA

CITY           SKY/WX    TMP DP  RH WIND       PRES   REMARKS
MUNCIE         CLOUDY    81  73  76 CALM      30.00F

$$

INZ060-061-067>069-081>083-085>088-240500-
SOUTHWEST INDIANA

CITY           SKY/WX    TMP DP  RH WIND       PRES   REMARKS
EVANSVILLE     CLEAR     80  76  87 CALM      29.97F
HUNTINGBURG *+ CLEAR     79  73  83 CALM      29.98F
WASHINGTON +   CLEAR     77  77 100 MISG      29.97F FOG

$$

INZ062-063-066-070>080-084-089>092-240500-
SOUTH CENTRAL AND SOUTHEAST INDIANA

CITY           SKY/WX    TMP DP  RH WIND       PRES   REMARKS
BLOOMINGTON    CLEAR     77  74  90 CALM      29.99F
MADISON *+     CLEAR     77  73  88 CALM      30.03S
NORTH VERNON + CLEAR    N/A N/A N/A CALM      30.01S
SEYMOUR +      CLEAR     77  75  94 CALM      29.99S

$$





USA.gov is the U.S. government's official web portal to all federal, state and local government web resources and services.